Terug naar catalogus

CZ-6A DEB

ActiefPO
NORAD 60870·DEBRIS·🇨🇳 China

Gelanceerd Aug 6, 2024 vanaf Taiyuan Satellite Launch Center

Loading…

Volgende Passages (komende 24 uur)

TLE

VersSource: Space-Track

Epoch: Sep 14, 2026, 22:46 UTC

1 60870U 24140JZ  26257.94902473  .00000742  00000-0  37241-3 0  9995
2 60870  88.7398 242.3923 0081030 307.4730  51.9105 14.13940700107443

Volg CZ-6A DEB in realtime met AllMySat

Download on the App Store